Tracking 26955 objects as of 3-Feb-2023
HD Live streaming from Space Station
objects crossing your sky now

ONEWEB-0532

Track ONEWEB-0532 now!
10-day predictions
ONEWEB-0532 is classified as:


NORAD ID: 55140
Int'l Code: 2023-004A
Perigee: 592.0 km
Apogee: 611.0 km
Inclination: 86.5 °
Period: 96.6 minutes
Semi major axis: 6972 km
RCS: Unknown
Launch date: January 10, 2023
Source: United Kingdom (UK)
Launch site: AIR FORCE WESTERN TEST RANGE (AFWTR)
Your satellite tracking list
Your tracking list is empty




NASA's NSSDC Master Catalog

Two Line Element Set (TLE):
1 55140U 23004A   23033.46351709  .00003616  00000-0  36124-3 0  9995
2 55140  86.5109 275.4836 0013621 132.6343 227.6036 14.91145698  3610
Source of the keplerian elements: AFSPC